Location: Dead Woman Crossing
(43.5369°N, 106.3228°W)
Time: 17:57:23
(UTC+00:00)

ZACube-1 - Pass Details

Date: 06 July 2022
Orbit: 582 x 661 km, 97.6° (Epoch: 09 August)

Event Time Altitude Azimuth Distance (km) Brightness Sun altitude
Rises 10:10:20 0° 24° (NNE) 2,975 ? -12.0°
Reaches altitude 10° 10:12:52 10° 37° (NE) 2,069 ? -11.6°
Maximum altitude 10:16:40 26° 94° (E) 1,291 ? -11.2°
Drops below altitude 10° 10:20:28 10° 152° (SSE) 2,072 ? -10.7°
Sets 10:23:00 0° 164° (SSE) 2,980 ? -10.4°
